AO-07 1 07530U 74089B 18102.51383247 -.00000031 00000-0 86480-4 0 9993 2 07530 101.6803 070.8370 0012482 101.6635 036.1040 12.53632096986138 UO-11 1 14781U 84021B 18102.68724186 .00000114 00000-0 20275-4 0 9996 2 14781 97.6570 141.6695 0007150 303.5850 56.4681 14.82994094834731 LO-19 1 20442U 90005G 18102.36405196 -.00000009 00000-0 12845-4 0 9996 2 20442 098.6055 041.2781 0011594 350.4978 009.5985 14.32891913474402 HUBBLE 1 20580U 90037B 18102.58349865 .00000571 00000-0 24070-4 0 9994 2 20580 028.4687 188.7774 0002799 149.4990 341.6106 15.09015518335464 MET-2/21 1 22782U 93055A 18102.74235446 .00000004 00000-0 -94474-5 0 9998 2 22782 82.5480 145.8755 0021196 313.0905 186.2094 13.83807968243120 AO-27 1 22825U 93061C 18102.59047705 -.00000002 00000-0 16875-4 0 9991 2 22825 098.8567 077.5390 0008490 170.6270 189.5072 14.30026700279923 IO-26 1 22826U 93061D 18102.48257724 .00000012 00000-0 22479-4 0 9991 2 22826 098.8508 077.4753 0009180 161.3869 198.7650 14.30357974280116 FO-29 1 24278U 96046B 18102.56594022 -.00000001 00000-0 38390-4 0 9992 2 24278 098.5233 310.3430 0349335 281.2337 074.9736 13.53082681069112 NOAA-15 1 25338U 98030A 18102.57953148 .00000041 00000-0 35930-4 0 9994 2 25338 098.7736 118.9547 0011469 061.5885 298.6449 14.25845875035416 GO-32 1 25397U 98043D 18102.38811890 -.00000020 00000-0 10425-4 0 9999 2 25397 098.6447 043.9345 0001140 155.0872 205.0362 14.23643214026149 ISS 1 25544U 98067A 18102.88944693 .00003569 00000-0 60855-4 0 9994 2 25544 51.6439 344.2320 0001811 343.5244 124.9692 15.54249739108364 NO-44 1 26931U 01043C 18102.21411127 -.00000037 00000-0 17500-4 0 9998 2 26931 067.0528 039.6390 0006959 282.3514 077.6808 14.30500285863040 SO-50 1 27607U 02058C 18102.80483229 .00000034 00000-0 25564-4 0 9998 2 27607 64.5544 289.8841 0057719 343.4108 16.5103 14.75438003823312 CO-55 1 27844U 03031E 18102.24419406 .00000066 00000-0 49741-4 0 9995 2 27844 098.6888 111.8680 0009431 195.7222 164.3665 14.22105039766786 CO-57 1 27848U 03031J 18102.46669621 .00000054 00000-0 44555-4 0 9994 2 27848 098.6975 112.4629 0009143 205.6355 154.4371 14.21710125766696 RS-22 1 27939U 03042A 18102.83735017 .00000119 00000-0 29954-4 0 9999 2 27939 97.9792 243.6990 0012849 2.2645 154.4875 14.66673551777235 NOAA-18 1 28654U 05018A 18102.57762357 .00000019 00000-0 35781-4 0 9991 2 28654 099.1525 136.6715 0013434 314.5154 045.4918 14.12372111664421 CO-58 1 28895U 05043F 18102.36913960 .00000168 00000-0 41141-4 0 9993 2 28895 97.8993 256.5254 0015400 277.8766 82.0689 14.63529230664241 Falconsat-3 1 30776U 07006E 18102.87976890 .00003457 00000-0 10328-3 0 9998 2 30776 35.4360 322.4142 0002659 180.7164 179.3559 15.34232267614288 CO-65 1 32785U 08021C 18102.48792675 .00000278 00000-0 35798-4 0 9999 2 32785 097.5505 117.7929 0011556 254.4402 105.5540 14.88092777539339 AAUSAT2 1 32788U 08021F 18102.53275986 .00000354 00000-0 37988-4 0 9997 2 32788 097.5279 131.7552 0011307 201.3042 158.7710 14.94281915540278 DO-64 1 32789U 08021G 18102.59923221 .00001204 00000-0 86906-4 0 9995 2 32789 097.5190 159.0540 0013363 154.9546 205.2332 15.05898941541812 CO-66 1 32791U 08021J 18102.28068591 .00000439 00000-0 50298-4 0 9998 2 32791 097.5408 122.8022 0012108 233.9351 126.0746 14.90510834539617 RS-30 1 32953U 08025A 18102.60548739 .00000013 00000-0 24516-4 0 9997 2 32953 82.5046 53.4579 0019362 356.8599 3.2356 12.43082791448628 PRISM 1 33493U 09002B 18102.89575369 .00000464 00000-0 46801-4 0 9994 2 33493 98.1373 2.4609 0014926 165.7867 194.3760 14.96149113500585 NOAA-19 1 33591U 09005A 18102.60700065 .00000076 00000-0 66324-4 0 9999 2 33591 099.1364 079.3527 0014471 147.4578 212.7488 14.12269053472650 TISAT-1 1 36799U 10035E 18102.40570876 .00000461 00000-0 52911-4 0 9995 2 36799 098.0953 236.9207 0013583 067.9186 292.3472 14.90749332420159 JUGNU 1 37839U 11058B 18102.23819919 .00000310 00000-0 23322-4 0 9999 2 37839 019.9616 077.1470 0018772 239.4394 240.8197 14.12615286335928 SRMSAT 1 37841U 11058D 18102.45082182 .00000303 00000-0 21172-4 0 9993 2 37841 019.9712 123.7057 0012013 127.8141 019.2292 14.10603081335493 AO-71 1 37854U 11061E 18102.54556349 .00001197 00000-0 70490-4 0 9991 2 37854 101.7102 133.8914 0163900 268.1078 090.1356 15.05278625351500 HRBE 1 37855U 11061F 18102.56117809 .00001489 00000-0 84082-4 0 9994 2 37855 101.7233 131.5173 0176918 276.4318 081.6775 15.04256341351319 ALMASAT-1 1 38078U 12006B 18102.80011486 .00026817 39417-5 24180-3 0 9996 2 38078 69.4364 37.1821 0257121 205.5039 249.4185 15.36798530330594 HORYU-2 1 38340U 12025D 18102.49998624 .00000242 00000-0 43674-4 0 9997 2 38340 098.3710 121.9510 0012761 063.6971 296.5546 14.75526984307015 RS-40 1 38735U 12041C 18102.73417057 .00000012 00000-0 13850-4 0 9994 2 38735 82.4734 137.4367 0018223 96.9287 263.3866 12.42576726258904 BEESAT-3 1 39134U 13015E 18102.62987590 .00001688 00000-0 89544-4 0 9995 2 39134 064.8642 338.9491 0020366 218.9736 140.9924 15.18983570274562 BEESAT-2 1 39136U 13015G 18102.09586486 .00001160 00000-0 69839-4 0 9997 2 39136 064.8708 355.7884 0026870 243.4221 116.4151 15.16006541274188 ZACUBE-1 1 39417U 13066B 18102.63966860 .00000285 00000-0 42299-4 0 9991 2 39417 97.5939 134.7552 0059351 11.4772 348.7779 14.80906642237096 TRITON-1 1 39427U 13066M 18102.44153803 .00000258 00000-0 48805-4 0 9995 2 39427 097.6401 102.7314 0115578 109.7610 251.6103 14.67634630234741 GOMX-1 1 39430U 13066Q 18102.88022372 .00000213 00000-0 47562-4 0 9993 2 39430 97.6926 84.4809 0151609 176.1481 184.0927 14.59051020233638 LO-74 1 39440U 13066AA 18102.63855314 .00000310 00000-0 50006-4 0 9992 2 39440 97.6055 121.7553 0081708 49.2303 311.5961 14.75641292236258 AO-73 1 39444U 13066AE 18102.53479319 .00000355 00000-0 50331-4 0 9992 2 39444 097.5950 136.0979 0058361 007.4809 352.7261 14.81676935235340 SPROUT 1 39770U 14029E 18102.84232539 .00000615 00000-0 75208-4 0 9998 2 39770 97.8724 204.4517 0010637 69.7665 290.4707 14.86758215210654 DUCHIFAT-1 1 40021U 14033M 18102.59462267 .00000595 00000-0 67138-4 0 9999 2 40021 097.9170 021.1945 0014034 039.4947 320.7290 14.90252099207184 NANOSATCBR1 1 40024U 14033Q 18102.73774178 .00000418 00000-0 49774-4 0 9995 2 40024 97.9110 19.7090 0013340 41.3325 318.8899 14.89522892207133 EO-79 1 40025U 14033R 18102.61383280 .00000354 00000-0 43875-4 0 9998 2 40025 097.9073 018.1413 0013634 045.5152 314.7177 14.88674828206526 DTUSAT-2 1 40030U 14033W 18102.56161021 .00000350 00000-0 43897-4 0 9995 2 40030 097.9024 016.8677 0013002 041.1572 319.0623 14.88285956206469 EO-80 1 40032U 14033Y 18102.54953349 .00000346 00000-0 43571-4 0 9991 2 40032 097.9031 016.8591 0012958 041.8423 318.3782 14.88222393206447 ANTELSAT 1 40034U 14033AA 18102.62471147 .00000287 00000-0 50069-4 0 9997 2 40034 097.8208 341.6235 0060108 050.1152 310.5320 14.73892128204498 VELOX-1 1 40057U 14034E 18102.74935583 .00000349 00000-0 56583-4 0 9991 2 40057 98.1954 212.6942 0011396 170.6566 189.4868 14.77384295203987 DAURIA DX 1 1 40071U 14037C 18102.82273195 .00000156 00000-0 27442-4 0 9991 2 40071 98.3639 231.3090 0008677 162.1189 198.0331 14.81141512203329 UKUBE-1 1 40074U 14037F 18102.67134422 .00000331 00000-0 47105-4 0 9999 2 40074 98.3768 236.6596 0005225 151.7631 208.3871 14.83757894203586 HODOYOSHI-1 1 40299U 14070B 18102.75051997 .00000797 00000-0 36980-4 0 9994 2 40299 97.3785 185.6782 0014638 116.4520 342.8632 15.22812610190526 CHUBUSAT-1 1 40300U 14070C 18102.72155919 .00000907 00000-0 43196-4 0 9993 2 40300 97.3667 181.8097 0021543 128.2872 332.0362 15.21475319190328 QSAT-EOS 1 40301U 14070D 18102.82976617 .00002084 00000-0 86694-4 0 9999 2 40301 97.3611 182.9489 0028153 120.4613 18.5537 15.24532696190466 FIREBIRD FU3 1 40377U 15003B 18102.62778968 .00003287 00000-0 13694-3 0 9991 2 40377 099.0947 351.3672 0133112 088.6932 272.9541 15.16946843176376 FIREBIRD FU4 1 40378U 15003C 18102.74898434 .00003126 00000-0 13035-3 0 9997 2 40378 99.0949 351.5669 0133300 88.1903 273.4587 15.16957902176407 GRIFEX 1 40379U 15003D 18102.72614823 .00002095 00000-0 94739-4 0 9999 2 40379 99.0980 347.9998 0140027 99.8376 261.8693 15.14136700176192 NO-84 1 40654U 15025D 18102.16597488 .00007497 00000-0 12963-3 0 02693 2 40654 054.9966 334.2950 0157994 302.2518 056.3365 15.39471366045677 NO-83 1 40655U 15025E 18102.15666000 .00019761 00000-0 22715-3 0 03111 2 40655 054.9790 284.7297 0113039 332.5468 026.9805 15.54579400046003 DEORBITSAIL 1 40719U 15032E 18102.64808330 .00000473 00000-0 75448-4 0 9992 2 40719 97.9522 357.2078 0014964 259.3598 100.5927 14.76381713148507 NUDT-PHONESAT 1 40900U 15049B 18102.85414792 .00002921 00000-0 13453-3 0 9997 2 40900 97.4427 111.8681 0011730 256.1897 103.8033 15.21040229141981 XW-2A 1 40903U 15049E 18102.82554725 .00002706 00000-0 69302-4 0 9994 2 40903 97.3915 137.0150 0012466 265.3491 94.6331 15.40236270143743 XW-2C 1 40906U 15049H 18102.73865349 .00000860 00000-0 49369-4 0 9994 2 40906 97.4605 107.4330 0013416 255.3684 104.6061 15.15101767141589 XW-2D 1 40907U 15049J 18102.82956790 .00000907 00000-0 51685-4 0 9992 2 40907 97.4579 107.2272 0012797 252.5153 107.4681 15.15246394141602 LILACSAT-2 1 40908U 15049K 18102.82411998 .00000511 00000-0 32167-4 0 9994 2 40908 97.4689 106.6641 0014440 254.0286 105.9354 15.13458188141489 XW-2F 1 40910U 15049M 18102.82866525 .00001345 00000-0 72597-4 0 9994 2 40910 97.4583 108.4234 0013532 248.1333 111.8461 15.16394172141548 XW-2B 1 40911U 15049N 18102.84470488 .00000899 00000-0 51339-4 0 9990 2 40911 97.4615 107.7548 0012707 253.0621 106.9218 15.15192675141507 DCBB 1 40912U 15049P 18102.77502315 .00001317 00000-0 66848-4 0 9995 2 40912 97.4528 111.0321 0013583 236.0517 119.6221 15.18592170141733 TW-1C 1 40926U 15051B 18102.88032613 .00010335 00000-0 19942-3 0 9996 2 40926 97.1931 145.5492 0010834 145.5043 334.6674 15.47944546143203 TW-1A 1 40928U 15051D 18102.77659663 .00003713 00000-0 10023-3 0 9999 2 40928 97.1937 138.0485 0011491 188.9468 260.6910 15.38329541142721 IO-86 1 40931U 15052B 18101.99963405 .00000652 00000-0 18489-5 0 9994 2 40931 6.0024 262.1360 0012799 150.7591 209.3279 14.76570953137209 LQSat 1 40958U 15057A 18102.81841186 .00000021 00000-0 10922-4 0 9994 2 40958 97.9435 177.3837 0018152 181.8766 178.2366 14.73024656135229 AO-85 1 40967U 15058D 18102.26135511 .00000351 00000-0 55486-4 0 02928 2 40967 064.7787 031.4003 0200769 334.2271 024.8963 14.75683107043926 ATHENOXAT-1 1 41168U 15077C 18102.51004630 .00002111 00000-0 79315-4 0 9995 2 41168 14.9822 140.9282 0011868 207.9560 23.7541 15.12613688128416 ChubuSat-2 1 41338U 16012B 18102.16713305 .00000452 00000-0 28679-4 0 9994 2 41338 031.0043 013.0944 0013841 140.1950 219.9703 14.99952750117911 ChubuSat-3 1 41339U 16012C 18102.78801612 .00000343 00000-0 20038-4 0 9992 2 41339 31.0118 7.8415 0013673 153.7652 206.3683 15.00142273117990 Horyu-4 1 41340U 16012D 18102.81592021 .00000700 00000-0 46852-4 0 9998 2 41340 31.0062 2.9113 0014154 165.7352 194.3686 15.00939836118063 OUFTI-1 1 41458U 16025C 18102.79675356 .00001309 00000-0 72297-4 0 9990 2 41458 98.1425 162.1384 0170711 7.5999 352.7730 15.04464811107609 e-st@r-II 1 41459U 16025D 18102.85883215 .00000946 00000-0 53754-4 0 9996 2 41459 98.1435 162.0680 0171789 7.9252 352.4633 15.04207657107603 AAUSAT4 1 41460U 16025E 18102.69845050 .00002883 00000-0 15270-3 0 9997 2 41460 98.1382 162.2998 0163079 4.9007 355.3765 15.05572427107630 LO-87 1 41557U 16033B 18102.82101403 .00001866 00000-0 70554-4 0 9992 2 41557 97.4376 187.1593 0014640 34.8901 325.3295 15.28170089104177 NuSat2 1 41558U 16033C 18102.82158408 .00001859 00000-0 70640-4 0 9998 2 41558 97.4404 187.2470 0014072 34.1157 326.0984 15.28002608104163 Lapan A3 1 41603U 16040E 18102.82005166 .00000284 00000-0 16529-4 0 9996 2 41603 97.4178 165.5058 0015127 105.5834 0.8032 15.19537725100159 Swayam 1 41607U 16040J 18102.44816643 .00002108 00000-0 95108-4 0 9995 2 41607 097.4196 166.3366 0015548 107.7107 252.5827 15.22016268100109 Pratham 1 41783U 16059A 18102.20229233 .00000070 00000-0 22969-4 0 9998 2 41783 098.1244 164.8048 0032403 304.0519 055.7607 14.62911966082317 AlSat 1N 1 41789U 16059G 18102.83015651 .00000062 00000-0 20991-4 0 9994 2 41789 98.1249 166.5142 0027031 294.6128 65.2244 14.64141016 82454 ScatSat 1 41790U 16059H 18102.58929521 .00000023 00000-0 16997-4 0 9996 2 41790 098.2677 151.5424 0017082 294.8903 065.0516 14.50866970081678 TY-1 1 41844U 16066D 18102.84377609 .00001650 00000-0 72917-4 0 9998 2 41844 97.4075 110.6824 0013741 267.9034 213.8284 15.23053394 78934 Pegasus-1 1 41846U 16066F 18102.54359147 .00000530 00000-0 89872-4 0 9998 2 41846 098.7603 129.6335 0369600 081.8055 282.4869 14.37295901074470 CAS-2T 1 41847U 16066G 18102.14492913 .00000109 00000-0 26181-4 0 9990 2 41847 098.7577 129.6374 0367206 080.7214 283.5298 14.37876040074836 TO-89 1 41932U 98067KU 18102.60653204 .00034196 00000-0 25647-3 0 9997 2 41932 051.6372 317.7942 0003003 293.8574 066.2110 15.72276970070438 AOBA-V3LOX3 1 41935U 98067KX 18102.18740017 .00041862 00000-0 28074-3 0 9997 2 41935 51.6367 317.2019 0002467 288.6751 71.3981 15.74797807 70507 EO-88 1 42017U 17008BX 18102.71467211 .00002260 00000-0 95647-4 0 9996 2 42017 97.4544 168.1487 0004960 242.2226 117.8508 15.24221822 64091 HAVELSAT 1 42700U 98067LH 18102.62963815 .00030222 00000-0 27450-3 0 9995 2 42700 051.6372 329.1972 0003099 010.8014 349.3048 15.67712641051723 SOMP2 1 42701U 98067LJ 18102.83798420 .00027772 00000-0 25989-3 0 9998 2 42701 51.6373 329.0885 0003144 10.5432 349.5629 15.67021324 51738 PHOENIX 1 42706U 98067LP 18102.77667447 .00024977 00000-0 23911-3 0 9997 2 42706 51.6371 329.4341 0000430 244.8953 115.1999 15.66520955 51647 X-CubeSat 1 42707U 98067LQ 18102.81966141 .00029942 00000-0 26832-3 0 9998 2 42707 51.6344 328.1726 0000692 232.4953 127.5981 15.68052326 51657 qbee 1 42708U 98067LR 18102.79923616 .00027394 00000-0 25196-3 0 9997 2 42708 51.6374 328.8183 0000560 237.0496 123.0447 15.67460669 51607 ZA-AeroSat 1 42713U 98067LU 18102.81643677 .00021859 00000-0 22008-3 0 9991 2 42713 51.6364 331.1907 0001495 259.8019 100.2808 15.65343989 51289 LINK 1 42714U 98067LV 18102.21131955 .00047290 00000-0 34363-3 0 9991 2 42714 51.6325 327.8142 0002281 237.7316 122.3461 15.72872617 51383 UPSat 1 42716U 98067LX 18102.82166734 .00041144 00000-0 32852-3 0 9996 2 42716 51.6357 325.9531 0001158 11.1068 348.9955 15.70696895 51486 SpaceCube 1 42717U 98067LY 18102.82363233 .00027624 00000-0 25461-3 0 9995 2 42717 51.6357 328.9755 0001821 15.7173 344.3879 15.67402917 50684 Hoopoe 1 42718U 98067LZ 18102.81920101 .00034974 00000-0 29920-3 0 9998 2 42718 51.6366 327.4499 0001410 7.7335 352.3684 15.69106844 50707 Challenger 1 42721U 98067MA 18102.63159160 .00074255 00000-0 46382-3 0 9998 2 42721 051.6319 323.1158 0002691 319.9636 040.1165 15.76187492050441 NJUST-1 1 42722U 98067MB 18102.84089007 .00021838 00000-0 22676-3 0 9993 2 42722 51.6375 332.1166 0004644 349.4302 10.6595 15.64555665 50347 UNSW-EC0 1 42723U 98067MC 18102.77857590 .00037166 00000-0 31277-3 0 9994 2 42723 51.6383 327.9494 0003329 341.6868 18.4008 15.69472379 50376 DUTHsat 1 42724U 98067MD 18102.84541882 .00065242 00000-0 42781-3 0 9995 2 42724 51.6348 323.0738 0001894 318.4646 41.6210 15.75128696 50366 LO-90 1 42725U 98067ME 18102.84403441 .00028340 00000-0 27251-3 0 9997 2 42725 51.6373 330.6353 0003415 350.1325 9.9603 15.66331763 50263 nSIGHT1 1 42726U 98067MF 18102.82405158 .00007741 00000-0 98217-4 0 9996 2 42726 51.6398 336.5407 0004869 355.8877 4.2076 15.60500057 50196 QBITO 1 42728U 98067MH 18102.85540325 .00029872 00000-0 27400-3 0 9991 2 42728 51.6391 329.2483 0001236 355.6450 4.4535 15.67479225 50094 Aalto-2 1 42729U 98067MJ 18102.84405113 .00030491 00000-0 27736-3 0 9997 2 42729 51.6370 329.1325 0001178 352.5448 7.5531 15.67673074 50104 SUSat 1 42730U 98067MK 18102.84880795 .00027353 00000-0 25910-3 0 9997 2 42730 51.6369 329.9060 0001438 353.0736 7.0240 15.66730572 50088 i-INSPIRE II 1 42731U 98067ML 18102.79327303 .00032817 00000-0 27145-3 0 9996 2 42731 51.6359 327.2443 0004371 282.4776 77.5732 15.69948721 50169 PolyITAN-2-SAU 1 42732U 98067MM 18102.81705690 .00028585 00000-0 25804-3 0 9996 2 42732 51.6363 328.9238 0004685 283.8903 76.1572 15.67889173 50148 SNUSAT-1 1 42733U 98067MN 18102.84925808 .00027290 00000-0 25766-3 0 9994 2 42733 51.6368 329.8992 0004781 289.2016 70.8462 15.66803472 50138 ExAlta-1 1 42734U 98067MP 18102.85853006 .00041085 00000-0 33430-3 0 9991 2 42734 51.6344 326.9183 0004798 312.9590 47.1004 15.70232311 50123 Aoxiang-1 1 42735U 98067MQ 18102.88157909 .00021535 00000-0 22153-3 0 9992 2 42735 51.6366 331.6212 0005060 345.5161 14.5688 15.64801316 51489 BeEagleSat 1 42736U 98067MR 18102.79868623 .00023819 00000-0 23421-3 0 9991 2 42736 51.6364 331.0608 0004714 343.3660 16.7180 15.65873773 50179 Atlantis 1 42737U 98067MS 18087.11387049 .13966215 12356-4 93055-3 0 9999 2 42737 51.6095 27.8979 0006293 234.7874 125.2564 16.40626348 47903 CAS-4B 1 42759U 17034B 18102.81277773 .00000260 00000-0 29641-4 0 9990 2 42759 43.0184 82.1456 0008156 49.3516 20.6047 15.09242575 45573 CAS-4A 1 42761U 17034D 18102.79727243 .00000401 00000-0 38295-4 0 9994 2 42761 43.0177 82.0437 0008465 52.5418 14.5999 15.09319599 45564 UCLSat 1 42765U 17036A 18102.58528841 .00001710 00000-0 78615-4 0 9994 2 42765 097.4079 163.4733 0010513 311.9882 048.0457 15.21669445045326 NIUSat 1 42766U 17036B 18102.57929891 .00001304 00000-0 63174-4 0 9997 2 42766 097.4081 162.8845 0014477 296.1694 063.8052 15.20243051044566 LituanicaSAT 2 1 42768U 17036D 18102.48802941 .00002649 00000-0 12207-3 0 9998 2 42768 097.4093 163.0177 0014218 299.0002 060.9808 15.21078910044579 Aalto 1 1 42775U 17036L 18102.23132735 .00001085 00000-0 52521-4 0 9993 2 42775 097.4074 162.7249 0012727 298.6534 061.3421 15.20623000044470 URSA MAIOR 1 42776U 17036M 18102.22108221 .00001155 00000-0 55619-4 0 9995 2 42776 097.4081 162.7529 0012573 299.0022 060.9952 15.20692762044471 Max Valier Sat 1 42778U 17036P 18102.59993750 .00001365 00000-0 64309-4 0 9995 2 42778 097.4103 163.3827 0011149 303.5131 056.5039 15.21157483044537 Pegasus 1 42784U 17036V 18102.61470090 .00001611 00000-0 74650-4 0 9996 2 42784 97.4082 163.4441 0011030 311.6316 48.3974 15.21488645 44542 NUDATSat 1 42787U 17036Y 18102.55616756 .00002526 00000-0 11364-3 0 9991 2 42787 097.4088 163.5289 0010513 311.5424 048.4910 15.21986111044380 SUCHAI 1 1 42788U 17036Z 18102.58289583 .00001845 00000-0 84456-4 0 9995 2 42788 097.4083 163.4848 0010640 311.8463 048.1864 15.21726865044612 SKCUBE 1 42789U 17036AA 18102.58098238 .00001720 00000-0 78985-4 0 9993 2 42789 097.4081 163.4825 0010477 311.9077 048.1265 15.21703039044530 VZLUSAT 1 1 42790U 17036AB 18102.61223469 .00002489 00000-0 11194-3 0 9996 2 42790 097.4085 163.5923 0010079 312.1349 047.9030 15.22013894044541 VENTA 1 1 42791U 17036AC 18102.56491956 .00001683 00000-0 77220-4 0 9997 2 42791 097.4081 163.5014 0010124 312.9759 047.0628 15.21764749044526 Robusta 1B 1 42792U 17036AD 18102.55565635 .00001724 00000-0 78873-4 0 9994 2 42792 097.4079 163.5072 0010056 313.4239 046.6160 15.21841861044540 D-SAT 1 42794U 17036AF 18102.60441054 .00000352 00000-0 35965-4 0 9991 2 42794 097.5992 159.7148 0128265 139.9662 221.1098 14.90821860043957 BIRD-J 1 42820U 98067MU 18102.06638733 .00026713 00000-0 27169-3 0 9991 2 42820 051.6368 336.6753 0002249 251.4515 108.6236 15.64958829043516 BIRD-G 1 42821U 98067MV 18102.09923508 .00025255 00000-0 26108-3 0 9994 2 42821 51.6368 336.8955 0002156 256.4318 103.6437 15.64579780 43474 BIRD-M 1 42822U 98067MW 18102.60038725 .00023278 00000-0 23935-3 0 9998 2 42822 051.6369 334.2449 0002151 259.0012 101.0741 15.64768445043570 BIRD-B 1 42823U 98067MX 18102.08875288 .00026641 00000-0 27250-3 0 9995 2 42823 051.6376 336.8420 0004242 294.5437 065.5115 15.64810321043495 BIRD-N 1 42824U 98067MY 18102.10552240 .00026297 00000-0 27067-3 0 9992 2 42824 51.6381 336.9664 0004156 295.1157 64.9407 15.64660189 43462 TechnoSat 1 42829U 17042E 18102.78856266 .00000171 00000-0 22859-4 0 9998 2 42829 97.6021 7.5865 0015690 60.1447 300.1329 14.90794097 40592 TOMSK-TPU 120 1 42910U 98067MZ 18102.80301244 .00018401 00000-0 20971-3 0 9996 2 42910 51.6366 336.3342 0005166 325.8140 34.2521 15.62290692 37155 TANYUSHA 1 1 42911U 98067NA 18102.82206650 .00020462 00000-0 22628-3 0 9995 2 42911 51.6375 335.7440 0004651 319.3660 40.6987 15.62990522 37146 TANYUSHA 2 1 42912U 98067NB 18102.73936425 .00019787 00000-0 22293-3 0 9992 2 42912 51.6381 336.6579 0004125 335.0203 25.0591 15.62536811 37146 SFERA 2 1 42913U 98067NC 18102.63264364 .00039374 00000-0 35499-3 0 9994 2 42913 051.6356 332.9331 0002211 334.5455 025.5432 15.67761912037181 TNS 0-2 1 42914U 98067ND 18102.77544401 .00017511 00000-0 20166-3 0 9997 2 42914 51.6377 336.9314 0004140 327.9069 32.1672 15.62064827 37131 QIKCOM-1 1 42983U 98067NF 18102.71797656 .00004361 00000-0 68898-4 0 9993 2 42983 51.6438 343.8569 0003024 321.2666 141.4605 15.55791285 26027 AO-91 1 43017U 17073E 18102.54573364 .00000654 00000-0 56240-4 0 9998 2 43017 097.7042 036.4323 0261307 125.1046 237.4966 14.77969619021419 EcAMSat 1 43019U 98067NG 18102.86902307 .00006834 00000-0 10184-3 0 9992 2 43019 51.6409 342.8351 0004337 290.1099 69.9426 15.56366732108376 PICSAT 1 43132U 18004X 18102.71706112 .00001806 00000-0 81117-4 0 9990 2 43132 97.5405 165.2040 0009173 336.6090 23.4727 15.22453568 13752 AO-92 1 43137U 18004AC 18102.77495268 .00001425 00000-0 64485-4 0 9994 2 43137 97.5403 165.2781 0008777 338.9697 21.1176 15.22558445 13757 TianYi 2 1 43155U 18008A 18102.78814358 .00000440 00000-0 30576-4 0 9994 2 43155 97.5278 178.3645 0018551 15.4810 132.9517 15.10438493 12617 TianYi 6 1 43158U 18008D 18102.83206779 .00001191 00000-0 77859-4 0 9994 2 43158 97.5284 178.3094 0014666 9.6951 128.4339 15.09613690 12590 S-Net G 1 43186U 18014G 18102.82645491 .00000390 00000-0 39470-4 0 9996 2 43186 97.7272 12.1270 0011677 15.5581 344.6010 14.96414366 10540 S-Net H 1 43187U 18014H 18097.34323736 .00002913 00000-0 26190-3 0 9999 2 43187 97.7522 6.6981 0007420 32.0110 328.1770 14.96432776 9722 S-Net J 1 43188U 18014J 18102.69264057 .00000405 00000-0 40865-4 0 9995 2 43188 97.7286 11.9970 0011473 17.7157 342.4487 14.96416065 10528 S-Net K 1 43189U 18014K 18102.82641836 .00000462 00000-0 45836-4 0 9991 2 43189 97.7260 12.1243 0011080 16.9303 343.2266 14.96415980 9094 FMN 1 1 43192U 18015A 18102.78137412 .00002484 00000-0 10969-3 0 9995 2 43192 97.3449 233.0722 0018095 18.5087 341.6810 15.22523258 10568 Shaonian Xing 1 43199U 18015H 18102.60529360 .00001805 00000-0 78317-4 0 9998 2 43199 097.3228 232.8018 0019009 031.7545 328.4843 15.23466843010552 /EX
